Valparaiso, IN

3:21 AM CST on February 13, 2016 (GMT -0600)
Porter County Municipal

Weather History for KVPZ - May, 2014

Change the Weather History Date:

Friday, May 2, 2014

  Actual Average Record
Temperature  
Mean Temperature 48 °F 55 °F  
Max Temperature 52 °F 66 °F 83 °F (2001)
Min Temperature 44 °F 44 °F 34 °F (2005)
Degree Days  
Heating Degree Days 17 10  
Month to date heating degree days 37 21  
Since 1 July heating degree days 7004 6080  
Cooling Degree Days 0 0  
Month to date cooling degree days 0 0  
Year to date cooling degree days 0 5  
Moisture  
Dew Point 43 °F    
Average Humidity 85    
Maximum Humidity 97    
Minimum Humidity 71    
Precipitation  
Precipitation 0.03 in 0.14 in 0.33 in (2010)
Month to date precipitation 0.10 0.28  
Year to date precipitation 5.72 9.46  
Sea Level Pressure  
Sea Level Pressure 29.83 in    
Wind  
Wind Speed 11 mph (SW)    
Max Wind Speed 22 mph    
Max Gust Speed 26 mph    
Visibility 10 miles    
Events Rain    
T = Trace of Precipitation, MM = Missing Value Source: NWS Daily Summary

Daily Weather History Graph

Daily Weather History Graph

Search for Another Location

Airport or City:

Trip Planner

Search our weather history database for the weather conditions in past years. The results will help you decide how hot, cold, wet, or windy it might be!

Date:

Astronomy

May. 02, 2014 Rise Set
Actual Time 5:43 AM CDT 7:46 PM CDT
Civil Twilight 5:13 AM CDT 8:17 PM CDT
Nautical Twilight 4:36 AM CDT 8:54 PM CDT
Astronomical Twilight 3:56 AM CDT 9:34 PM CDT
Moon 8:20 AM CDT (5/2) 11:09 PM CDT (5/2)
Length of Visible Light 15h 03m
Length of Day
14h 02m
Waxing Crescent, 12% of the Moon is Illuminated
May 2
Waxing Crescent
May 6
First Quarter
May 14
Full
May 21
Last Quarter
May 28
New

Hourly Weather History & Observations

Time (CDT) Temp. Windchill Dew Point Humidity Pressure Visibility Wind Dir Wind Speed Gust Speed Precip Events Conditions
12:23 AM 44.1 °F 38.6 °F 43.0 °F 96% 29.82 in 10.0 mi WSW 10.4 mph - 0.00 in Rain Light Rain
12:53 AM 44.1 °F 38.6 °F 43.0 °F 96% 29.84 in 9.0 mi WSW 10.4 mph - 0.00 in Rain Light Rain
1:53 AM 45.0 °F 39.7 °F 43.0 °F 93% 29.83 in 10.0 mi WSW 10.4 mph - 0.00 in   Overcast
2:01 AM 45.0 °F 38.5 °F 43.0 °F 93% 29.81 in 10.0 mi WSW 13.8 mph - N/A   Overcast
2:53 AM 45.0 °F 38.9 °F 44.1 °F 97% 29.82 in 7.0 mi WSW 12.7 mph - N/A   Overcast
3:53 AM 45.0 °F 39.3 °F 43.0 °F 93% 29.82 in 9.0 mi West 11.5 mph - N/A   Overcast
4:39 AM 45.0 °F 39.7 °F 43.0 °F 93% 29.81 in 10.0 mi West 10.4 mph - N/A   Overcast
4:53 AM 45.0 °F 40.1 °F 43.0 °F 93% 29.82 in 10.0 mi West 9.2 mph - N/A   Overcast
5:53 AM 45.0 °F 39.7 °F 43.0 °F 93% 29.83 in 10.0 mi WSW 10.4 mph - N/A   Overcast
6:51 AM 44.6 °F 38.8 °F 42.8 °F 93% 29.83 in 9.0 mi WSW 11.5 mph - N/A   Overcast
6:53 AM 45.0 °F 39.7 °F 42.1 °F 90% 29.84 in 9.0 mi WSW 10.4 mph - N/A   Overcast
7:53 AM 46.0 °F 40.6 °F 43.0 °F 89% 29.85 in 10.0 mi WSW 11.5 mph - N/A   Overcast
8:53 AM 46.9 °F - 42.1 °F 83% 29.85 in 10.0 mi WSW 9.2 mph - N/A   Overcast
9:53 AM 48.0 °F - 41.0 °F 77% 29.85 in 10.0 mi WSW 10.4 mph - N/A   Overcast
10:34 AM 48.9 °F - 42.1 °F 77% 29.84 in 10.0 mi SW 13.8 mph - N/A   Overcast
10:53 AM 50.0 °F - 43.0 °F 77% 29.86 in 10.0 mi SW 15.0 mph - N/A   Overcast
11:53 AM 48.9 °F - 42.1 °F 77% 29.86 in 9.0 mi WSW 16.1 mph 21.9 mph N/A   Overcast
12:21 PM 48.9 °F - 43.0 °F 80% 29.84 in 10.0 mi SW 12.7 mph - 0.00 in   Overcast
12:53 PM 51.1 °F - 42.1 °F 71% 29.84 in 10.0 mi SW 15.0 mph 19.6 mph 0.00 in   Overcast
1:13 PM 48.0 °F - 43.0 °F 83% 29.83 in 9.0 mi SW 16.1 mph 23.0 mph 0.00 in Rain Light Rain
1:24 PM 48.9 °F - 42.1 °F 77% 29.83 in 10.0 mi SW 15.0 mph - 0.00 in   Overcast
1:53 PM 48.9 °F - 43.0 °F 80% 29.83 in 10.0 mi WSW 15.0 mph - 0.00 in Rain Light Rain
2:39 PM 48.9 °F - 43.0 °F 80% 29.82 in 9.0 mi WSW 13.8 mph - 0.00 in Rain Light Rain
2:53 PM 51.1 °F - 42.1 °F 71% 29.82 in 10.0 mi WSW 9.2 mph - 0.00 in   Overcast
3:53 PM 50.0 °F - 44.1 °F 80% 29.82 in 10.0 mi SW 16.1 mph 24.2 mph 0.00 in   Overcast
4:02 PM 48.0 °F - 45.0 °F 89% 29.82 in 4.0 mi SW 19.6 mph 25.3 mph 0.00 in Rain Light Rain
4:27 PM 48.0 °F - 44.1 °F 86% 29.81 in 10.0 mi SW 12.7 mph 25.3 mph 0.00 in   Overcast
4:53 PM 50.0 °F - 44.1 °F 80% 29.81 in 10.0 mi SW 15.0 mph - 0.00 in   Overcast
5:53 PM 50.0 °F - 42.1 °F 74% 29.81 in 10.0 mi SW 13.8 mph - N/A   Overcast
7:53 PM 48.9 °F - 41.0 °F 74% 29.82 in 10.0 mi SW 8.1 mph - N/A   Overcast
8:53 PM 48.0 °F - 42.1 °F 80% 29.82 in 10.0 mi South 6.9 mph - N/A   Overcast
9:53 PM 46.9 °F - 44.1 °F 90% 29.81 in 10.0 mi South 4.6 mph - 0.02 in Rain Light Rain
10:53 PM 46.9 °F - 43.0 °F 86% 29.79 in 10.0 mi South 6.9 mph - 0.00 in   Overcast
11:53 PM 46.9 °F - 43.0 °F 86% 29.77 in 10.0 mi SSW 10.4 mph - N/A   Overcast